AWST,Max TemperatureF,Mean TemperatureF,Min TemperatureF,Max Dew PointF,MeanDew PointF,Min DewpointF,Max Humidity, Mean Humidity, Min Humidity, Max Sea Level PressureIn, Mean Sea Level PressureIn, Min Sea Level PressureIn, Max VisibilityMiles, Mean VisibilityMiles, Min VisibilityMiles, Max Wind SpeedMPH, Mean Wind SpeedMPH, Max Gust SpeedMPH,PrecipitationIn, CloudCover, Events, WindDirDegrees
2011-10-1,97,80,62,70,61,57,88,58,21,29.89,29.82,29.73,,,,10,5,,0.00,,,284
2011-10-2,93,77,61,66,62,59,94,61,26,29.90,29.83,29.74,,,,10,5,,0.00,,,274
2011-10-3,89,75,61,64,62,55,94,61,34,29.90,29.84,29.77,,,,12,6,,0.00,,,287
2011-10-4,91,74,58,65,56,46,88,54,15,29.95,29.87,29.79,,,,10,5,,0.00,,,267
2011-10-5,96,77,58,61,54,48,94,50,14,29.98,29.90,29.83,,,,9,5,,0.00,,,287
2011-10-6,97,80,63,64,61,54,94,57,18,29.98,29.90,29.83,,,,9,6,,0.00,,,259
2011-10-7,96,80,63,66,62,59,94,58,21,29.95,29.88,29.79,,,,10,6,,0.00,,,278
2011-10-8,97,80,63,68,63,59,94,59,22,29.95,29.87,29.79,,,,9,5,,0.00,,,268
2011-10-9,99,84,68,72,65,59,88,59,19,29.93,29.86,29.77,,,,9,6,,0.00,,,253
2011-10-10,99,84,68,70,63,57,88,57,17,29.95,29.88,29.80,,,,9,7,,0.00,,,251
2011-10-11,102,84,67,70,64,54,94,59,14,29.95,29.85,29.75,,,,8,6,,0.00,,,253
2011-10-12,104,84,65,72,61,48,94,52,10,29.89,29.80,29.71,,,,9,5,,0.00,,,250
2011-10-13,103,86,70,68,60,52,78,46,12,29.89,29.80,29.73,,,,9,6,,0.00,,,245
2011-10-14,103,86,68,70,61,45,94,54,8,29.89,29.83,29.77,,,,9,5,,0.00,,,232
2011-10-15,102,84,67,70,63,55,83,52,15,29.95,29.85,29.77,,,,9,4,,0.00,,,312
2011-10-16,106,86,65,70,61,43,88,50,10,29.89,29.81,29.71,,,,12,5,,0.00,,,313
2011-10-17,101,86,70,72,68,57,94,61,15,29.95,29.89,29.83,,,,14,7,,0.00,,,1
2011-10-18,99,86,74,72,68,61,89,58,24,29.96,29.89,29.79,,,,8,5,,0.00,,,291
2011-10-19,103,85,67,68,61,46,94,51,10,29.89,29.81,29.72,,,,7,5,,0.00,,,249
2011-10-20,100,86,72,75,64,55,100,55,15,29.86,29.80,29.73,,,,10,6,,0.00,,,342
2011-10-21,94,84,75,70,66,63,78,56,33,29.92,29.84,29.77,,,,9,5,,0.00,,,343
2011-10-22,97,85,73,70,65,61,83,54,24,29.92,29.85,29.77,,,,12,3,,0.00,,,151
2011-10-23,101,86,70,70,63,57,83,50,21,29.92,29.84,29.74,,,,10,2,,0.00,,,266
2011-10-24,104,88,71,72,61,50,83,46,10,29.92,29.82,29.71,,,,12,4,,0.00,,,325
2011-10-25,103,86,69,72,64,55,83,52,15,29.89,29.80,29.71,,,,10,5,,0.00,,,289
2011-10-26,99,86,72,72,66,59,78,52,25,29.92,29.82,29.74,,,,10,3,,0.00,,,346
2011-10-27,104,88,72,72,64,59,83,49,17,29.89,29.81,29.71,,,,9,3,,0.00,,,298
2011-10-28,105,91,77,73,67,60,83,52,19,29.86,29.78,29.68,,,,10,5,,0.00,,,353
2011-10-29,101,88,76,74,69,63,89,58,24,29.83,29.77,29.68,,,,8,5,,0.00,,,259
2011-10-30,89,82,75,72,67,64,74,62,48,29.83,29.77,29.73,,,,16,7,,0.00,,,135
2011-10-31,96,84,72,70,66,63,83,60,25,29.83,29.78,29.68,,,,10,6,,0.00,,,137